| time (UTC) | temp F | wind direction | speed MPH | gust MPH | rain 1hr in | rain 24hr in | rain mn in | humidity % | barometer mb |
| 20260504184733 | 74 | 299 | 2.0 | 11.0 | 0.00 | 0.00 | 0.00 | 30 | 1010.2 |
| 20260504184227 | 73 | 229 | 2.0 | 11.0 | 0.00 | 0.00 | 0.00 | 32 | 1010.2 |
| 20260504183456 | 74 | 223 | 3.0 | 11.0 | 0.00 | 0.00 | 0.00 | 30 | 1010.2 |
| 20260504182954 | 74 | 254 | 3.0 | 9.0 | 0.00 | 0.00 | 0.00 | 30 | 1010.3 |
| 20260504182454 | 73 | 219 | 2.0 | 9.0 | 0.00 | 0.00 | 0.00 | 31 | 1010.3 |
| 20260504181954 | 73 | 252 | 2.0 | 7.0 | 0.00 | 0.00 | 0.00 | 32 | 1010.5 |
| 20260504181452 | 73 | 304 | 2.0 | 7.0 | 0.00 | 0.00 | 0.00 | 29 | 1010.7 |
| 20260504180950 | 73 | 252 | 2.0 | 7.0 | 0.00 | 0.00 | 0.00 | 31 | 1010.6 |
| 20260504180440 | 73 | 254 | 1.0 | 7.0 | 0.00 | 0.00 | 0.00 | 30 | 1010.7 |
| 20260504175929 | 73 | 255 | 1.0 | 5.0 | 0.00 | 0.00 | 0.00 | 30 | 1010.8 |
| 20260504175427 | 72 | 309 | 1.0 | 10.0 | 0.00 | 0.00 | 0.00 | 32 | 1010.8 |
| 20260504174922 | 72 | 278 | 2.0 | 14.0 | 0.00 | 0.00 | 0.00 | 29 | 1010.8 |
| 20260504174652 | 72 | 236 | 2.0 | 14.0 | 0.00 | 0.00 | 0.00 | 32 | 1010.9 |
| 20260504174156 | 73 | 215 | 1.0 | 7.0 | 0.00 | 0.00 | 0.00 | 33 | 1011.0 |
| 20260504173414 | 72 | 258 | 1.0 | 5.0 | 0.00 | 0.00 | 0.00 | 32 | 1011.0 |
| 20260504173143 | 72 | 302 | 2.0 | 6.0 | 0.00 | 0.00 | 0.00 | 32 | 1011.1 |
| 20260504172413 | 72 | 284 | 2.0 | 9.0 | 0.00 | 0.00 | 0.00 | 31 | 1011.2 |
| 20260504171916 | 72 | 265 | 2.0 | 9.0 | 0.00 | 0.00 | 0.00 | 33 | 1011.3 |
| 20260504171413 | 71 | 306 | 1.0 | 7.0 | 0.00 | 0.00 | 0.00 | 31 | 1011.4 |
| 20260504170912 | 71 | 283 | 1.0 | 10.0 | 0.00 | 0.00 | 0.00 | 31 | 1011.5 |
| 20260504170409 | 72 | 280 | 2.0 | 10.0 | 0.00 | 0.00 | 0.00 | 31 | 1011.6 |
| 20260504160353 | 69 | 204 | 2.0 | 15.0 | 0.00 | 0.00 | 0.00 | 36 | 1012.0 |
| 20260504150832 | 67 | 229 | 1.0 | 5.0 | 0.00 | 0.00 | 0.00 | 44 | 1012.4 |
| 20260504150331 | 67 | 236 | 2.0 | 7.0 | 0.00 | 0.00 | 0.00 | 41 | 1012.4 |
| 20260504141251 | 64 | 180 | 2.0 | 12.0 | 0.00 | 0.00 | 0.00 | 50 | 1012.7 |
| 20260504140749 | 64 | 213 | 2.0 | 7.0 | 0.00 | 0.00 | 0.00 | 52 | 1012.8 |
| 20260504140250 | 64 | 229 | 2.0 | 10.0 | 0.00 | 0.00 | 0.00 | 52 | 1012.8 |
| 20260504130742 | 61 | 225 | 2.0 | 10.0 | 0.00 | 0.00 | 0.00 | 65 | 1013.3 |
| 20260504130240 | 60 | 204 | 1.0 | 10.0 | 0.00 | 0.00 | 0.00 | 64 | 1013.3 |
| 20260504120222 | 55 | 174 | 0.0 | 3.0 | 0.00 | 0.00 | 0.00 | 81 | 1013.7 |
| 20260504110133 | 52 | 208 | 0.0 | 4.0 | 0.00 | 0.00 | 0.00 | 83 | 1014.0 |
| 20260504100542 | 51 | 225 | 0.0 | 3.0 | 0.00 | 0.00 | 0.00 | 82 | 1014.0 |
| 20260504081851 | 49 | 171 | 1.0 | 9.0 | 0.00 | 0.00 | 0.00 | 79 | 1014.0 |
| 20260504081351 | 49 | 168 | 1.0 | 5.0 | 0.00 | 0.00 | 0.00 | 78 | 1013.9 |
| 20260504080848 | 49 | 172 | 1.0 | 5.0 | 0.00 | 0.00 | 0.00 | 78 | 1014.0 |
| 20260504080617 | 48 | 168 | 1.0 | 5.0 | 0.00 | 0.00 | 0.00 | 78 | 1014.0 |
| 20260504080111 | 48 | 169 | 1.0 | 5.0 | 0.00 | 0.00 | 0.00 | 77 | 1014.0 |
| 20260504060128 | 49 | 207 | 0.0 | 0.0 | 0.00 | 0.00 | 0.00 | 62 | 1013.9 |
| 20260504050457 | 48 | 221 | 0.0 | 0.0 | 0.00 | 0.00 | 0.00 | 62 | 1014.1 |
| 20260504045945 | 48 | 221 | 0.0 | 0.0 | 0.00 | 0.00 | 0.00 | 62 | 1014.1 |
| 20260504045428 | 48 | 221 | 0.0 | 0.0 | 0.00 | 0.00 | 0.00 | 61 | 1014.2 |
| 20260504044907 | 48 | 224 | 0.0 | 0.0 | 0.00 | 0.00 | 0.00 | 62 | 1014.1 |
| 20260504044639 | 47 | 226 | 0.0 | 0.0 | 0.00 | 0.00 | 0.00 | 62 | 1014.0 |
| 20260504043901 | 47 | 226 | 0.0 | 0.0 | 0.00 | 0.00 | 0.00 | 62 | 1014.0 |
| 20260504043351 | 47 | 226 | 0.0 | 0.0 | 0.00 | 0.00 | 0.00 | 62 | 1013.9 |
| 20260504043109 | 47 | 226 | 0.0 | 0.0 | 0.00 | 0.00 | 0.00 | 62 | 1013.9 |
| 20260504042336 | 47 | 226 | 0.0 | 0.0 | 0.00 | 0.00 | 0.00 | 62 | 1013.9 |
| 20260504041817 | 47 | 226 | 0.0 | 0.0 | 0.00 | 0.00 | 0.00 | 62 | 1013.9 |
| 20260504041312 | 47 | 227 | 0.0 | 0.0 | 0.00 | 0.00 | 0.00 | 62 | 1013.8 |
| 20260504040808 | 47 | 226 | 0.0 | 0.0 | 0.00 | 0.00 | 0.00 | 61 | 1013.7 |
| 20260504040310 | 47 | 227 | 0.0 | 0.0 | 0.00 | 0.00 | 0.00 | 61 | 1013.7 |
| 20260504040305 | 47 | 227 | 0.0 | 0.0 | 0.00 | 0.00 | 0.00 | 61 | 1013.6 |
| 20260504035304 | 47 | 227 | 0.0 | 0.0 | 0.00 | 0.00 | 0.00 | 61 | 1013.7 |
| 20260504034801 | 47 | 282 | 0.0 | 0.0 | 0.00 | 0.00 | 0.00 | 60 | 1013.7 |
| 20260504034249 | 47 | 282 | 0.0 | 0.0 | 0.00 | 0.00 | 0.00 | 60 | 1013.7 |
| 20260504033737 | 47 | 282 | 0.0 | 0.0 | 0.00 | 0.00 | 0.00 | 60 | 1013.6 |
| 20260504033219 | 47 | 282 | 0.0 | 0.0 | 0.00 | 0.00 | 0.00 | 60 | 1013.6 |
| 20260504032713 | 47 | 282 | 0.0 | 0.0 | 0.00 | 0.00 | 0.00 | 60 | 1013.6 |
| 20260504032159 | 47 | 282 | 0.0 | 0.0 | 0.00 | 0.00 | 0.00 | 60 | 1013.5 |
| 20260504031627 | 47 | 282 | 0.0 | 0.0 | 0.00 | 0.00 | 0.00 | 60 | 1013.3 |
| 20260504031402 | 47 | 282 | 0.0 | 0.0 | 0.00 | 0.00 | 0.00 | 59 | 1013.4 |
| 20260504030617 | 47 | 282 | 0.0 | 0.0 | 0.00 | 0.00 | 0.00 | 59 | 1013.3 |
| 20260504030111 | 47 | 282 | 0.0 | 0.0 | 0.00 | 0.00 | 0.00 | 59 | 1013.4 |
| 20260504025610 | 47 | 282 | 0.0 | 0.0 | 0.00 | 0.00 | 0.00 | 59 | 1013.3 |
| 20260504025102 | 47 | 282 | 0.0 | 0.0 | 0.00 | 0.00 | 0.00 | 59 | 1013.3 |
| 20260504024555 | 48 | 282 | 0.0 | 0.0 | 0.00 | 0.00 | 0.00 | 59 | 1013.3 |
| 20260504024046 | 48 | 282 | 0.0 | 0.0 | 0.00 | 0.00 | 0.00 | 58 | 1013.3 |
| 20260504023533 | 48 | 282 | 0.0 | 0.0 | 0.00 | 0.00 | 0.00 | 57 | 1013.3 |
| 20260504023021 | 48 | 282 | 0.0 | 0.0 | 0.00 | 0.00 | 0.00 | 57 | 1013.3 |
| 20260504023013 | 48 | 282 | 0.0 | 0.0 | 0.00 | 0.00 | 0.00 | 57 | 1013.3 |
| 20260504022003 | 49 | 282 | 0.0 | 0.0 | 0.00 | 0.00 | 0.00 | 57 | 1013.3 |
| 20260504021445 | 49 | 282 | 0.0 | 0.0 | 0.00 | 0.00 | 0.00 | 57 | 1013.3 |
| 20260504020943 | 49 | 282 | 0.0 | 0.0 | 0.00 | 0.00 | 0.00 | 56 | 1013.3 |
| 20260504020441 | 49 | 282 | 0.0 | 0.0 | 0.00 | 0.00 | 0.00 | 55 | 1013.2 |
| 20260504015935 | 49 | 282 | 0.0 | 0.0 | 0.00 | 0.00 | 0.00 | 55 | 1013.3 |
| 20260504015436 | 50 | 282 | 0.0 | 0.0 | 0.00 | 0.00 | 0.00 | 54 | 1013.3 |
| 20260504014903 | 50 | 282 | 0.0 | 0.0 | 0.00 | 0.00 | 0.00 | 54 | 1013.3 |
| 20260504014633 | 50 | 282 | 0.0 | 0.0 | 0.00 | 0.00 | 0.00 | 53 | 1013.3 |
| 20260504013859 | 50 | 282 | 0.0 | 0.0 | 0.00 | 0.00 | 0.00 | 53 | 1013.3 |
| 20260504013350 | 51 | 282 | 0.0 | 0.0 | 0.00 | 0.00 | 0.00 | 52 | 1013.3 |
| 20260504012849 | 51 | 282 | 0.0 | 0.0 | 0.00 | 0.00 | 0.00 | 52 | 1013.3 |
| 20260504012337 | 51 | 282 | 0.0 | 0.0 | 0.00 | 0.00 | 0.00 | 52 | 1013.2 |
| 20260504011759 | 51 | 282 | 0.0 | 0.0 | 0.00 | 0.00 | 0.00 | 51 | 1013.2 |
| 20260504011301 | 52 | 282 | 0.0 | 0.0 | 0.00 | 0.00 | 0.00 | 50 | 1013.0 |
| 20260504010742 | 52 | 282 | 0.0 | 0.0 | 0.00 | 0.00 | 0.00 | 49 | 1013.0 |
| 20260504010239 | 52 | 282 | 0.0 | 0.0 | 0.00 | 0.00 | 0.00 | 48 | 1012.9 |
| 20260504005707 | 53 | 282 | 0.0 | 0.0 | 0.00 | 0.00 | 0.00 | 48 | 1013.0 |
| 20260504005201 | 53 | 282 | 0.0 | 0.0 | 0.00 | 0.00 | 0.00 | 48 | 1013.0 |
| 20260504004700 | 53 | 282 | 0.0 | 0.0 | 0.00 | 0.00 | 0.00 | 47 | 1012.8 |
| 20260504004154 | 54 | 282 | 0.0 | 0.0 | 0.00 | 0.00 | 0.00 | 46 | 1012.8 |
| 20260504003636 | 54 | 282 | 0.0 | 0.0 | 0.00 | 0.00 | 0.00 | 45 | 1012.8 |
| 20260504003404 | 55 | 282 | 0.0 | 0.0 | 0.00 | 0.00 | 0.00 | 46 | 1012.8 |
| 20260504002629 | 55 | 282 | 0.0 | 0.0 | 0.00 | 0.00 | 0.00 | 45 | 1012.7 |
| 20260504002128 | 56 | 282 | 0.0 | 0.0 | 0.00 | 0.00 | 0.00 | 44 | 1012.6 |
| 20260504001619 | 56 | 282 | 0.0 | 0.0 | 0.00 | 0.00 | 0.00 | 44 | 1012.4 |
| 20260504001103 | 57 | 282 | 0.0 | 0.0 | 0.00 | 0.00 | 0.00 | 41 | 1012.4 |
| 20260504000601 | 58 | 282 | 0.0 | 0.0 | 0.00 | 0.00 | 0.00 | 41 | 1012.3 |
| 20260504000052 | 58 | 282 | 0.0 | 0.0 | 0.00 | 0.00 | 0.00 | 40 | 1012.3 |
| 20260503235525 | 59 | 282 | 0.0 | 0.0 | 0.00 | 0.00 | 0.00 | 37 | 1012.4 |
| 20260503235021 | 59 | 282 | 0.0 | 0.0 | 0.00 | 0.00 | 0.00 | 37 | 1012.3 |
| 20260503234459 | 59 | 282 | 0.0 | 0.0 | 0.00 | 0.00 | 0.00 | 35 | 1012.3 |
| 20260503233951 | 60 | 282 | 0.0 | 0.0 | 0.00 | 0.00 | 0.00 | 35 | 1012.3 |
| 20260503233454 | 60 | 282 | 0.0 | 0.0 | 0.00 | 0.00 | 0.00 | 35 | 1012.3 |
| 20260503232929 | 60 | 284 | 0.0 | 0.0 | 0.00 | 0.00 | 0.00 | 34 | 1012.3 |
| 20260503232425 | 60 | 283 | 0.0 | 2.0 | 0.00 | 0.00 | 0.00 | 34 | 1012.2 |
| 20260503231922 | 60 | 284 | 1.0 | 5.0 | 0.00 | 0.00 | 0.00 | 34 | 1012.3 |
| 20260503231405 | 60 | 293 | 2.0 | 6.0 | 0.00 | 0.00 | 0.00 | 33 | 1012.3 |
| 20260503230856 | 60 | 269 | 2.0 | 6.0 | 0.00 | 0.00 | 0.00 | 32 | 1012.3 |
| 20260503230357 | 61 | 242 | 2.0 | 6.0 | 0.00 | 0.00 | 0.00 | 32 | 1012.2 |
| 20260503225847 | 61 | 282 | 2.0 | 7.0 | 0.00 | 0.00 | 0.00 | 32 | 1012.2 |
| 20260503225345 | 61 | 290 | 3.0 | 10.0 | 0.00 | 0.00 | 0.00 | 33 | 1012.1 |
| 20260503225113 | 61 | 295 | 4.0 | 10.0 | 0.00 | 0.00 | 0.00 | 31 | 1012.0 |
| 20260503224339 | 61 | 286 | 4.0 | 9.0 | 0.00 | 0.00 | 0.00 | 31 | 1012.1 |
| 20260503224106 | 61 | 294 | 5.0 | 11.0 | 0.00 | 0.00 | 0.00 | 31 | 1012.1 |
| 20260503223336 | 61 | 279 | 5.0 | 14.0 | 0.00 | 0.00 | 0.00 | 32 | 1012.1 |
| 20260503222851 | 61 | 279 | 5.0 | 15.0 | 0.00 | 0.00 | 0.00 | 32 | 1012.1 |
| 20260503222837 | 61 | 287 | 4.0 | 14.0 | 0.00 | 0.00 | 0.00 | 30 | 1012.1 |
| 20260503221831 | 61 | 294 | 6.0 | 15.0 | 0.00 | 0.00 | 0.00 | 32 | 1012.2 |
| 20260503221324 | 61 | 284 | 4.0 | 12.0 | 0.00 | 0.00 | 0.00 | 32 | 1012.1 |
| 20260503220824 | 62 | 282 | 4.0 | 13.0 | 0.00 | 0.00 | 0.00 | 33 | 1012.1 |
| 20260503220319 | 61 | 315 | 5.0 | 13.0 | 0.00 | 0.00 | 0.00 | 32 | 1012.1 |
| 20260503215821 | 61 | 276 | 3.0 | 12.0 | 0.00 | 0.00 | 0.00 | 32 | 1012.1 |
| 20260503215559 | 61 | 311 | 6.0 | 14.0 | 0.00 | 0.00 | 0.00 | 31 | 1012.2 |
| 20260503215319 | 61 | 265 | 5.0 | 14.0 | 0.00 | 0.00 | 0.00 | 33 | 1012.1 |
| 20260503214323 | 61 | 310 | 6.0 | 15.0 | 0.00 | 0.00 | 0.00 | 32 | 1012.1 |
| 20260503213821 | 61 | 327 | 6.0 | 15.0 | 0.00 | 0.00 | 0.00 | 31 | 1012.0 |
| 20260503213552 | 61 | 292 | 4.0 | 13.0 | 0.00 | 0.00 | 0.00 | 32 | 1012.0 |
| 20260503212817 | 61 | 324 | 4.0 | 13.0 | 0.00 | 0.00 | 0.00 | 34 | 1011.9 |
| 20260503212322 | 60 | 259 | 7.0 | 14.0 | 0.00 | 0.00 | 0.00 | 33 | 1012.0 |
| 20260503212314 | 60 | 286 | 6.0 | 14.0 | 0.00 | 0.00 | 0.00 | 34 | 1012.0 |
| 20260503211313 | 60 | 261 | 7.0 | 15.0 | 0.00 | 0.00 | 0.00 | 34 | 1012.0 |
| 20260503210813 | 60 | 327 | 7.0 | 16.0 | 0.00 | 0.00 | 0.00 | 32 | 1012.0 |
| 20260503210313 | 61 | 321 | 6.0 | 16.0 | 0.00 | 0.00 | 0.00 | 34 | 1012.0 |
| 20260503205809 | 61 | 269 | 7.0 | 14.0 | 0.00 | 0.00 | 0.00 | 33 | 1012.1 |
| 20260503205309 | 61 | 294 | 7.0 | 15.0 | 0.00 | 0.00 | 0.00 | 33 | 1012.1 |
| 20260503204809 | 61 | 242 | 8.0 | 19.0 | 0.00 | 0.00 | 0.00 | 33 | 1012.1 |
| 20260503204306 | 60 | 279 | 9.0 | 19.0 | 0.00 | 0.00 | 0.00 | 32 | 1012.0 |
| 20260503203805 | 61 | 238 | 9.0 | 18.0 | 0.00 | 0.00 | 0.00 | 33 | 1012.1 |
| 20260503203306 | 61 | 269 | 8.0 | 18.0 | 0.00 | 0.00 | 0.00 | 32 | 1012.2 |
| 20260503202816 | 60 | 287 | 7.0 | 19.0 | 0.00 | 0.00 | 0.00 | 32 | 1012.0 |
| 20260503202807 | 61 | 286 | 6.0 | 15.0 | 0.00 | 0.00 | 0.00 | 33 | 1012.1 |
| 20260503202036 | 60 | 257 | 8.0 | 19.0 | 0.00 | 0.00 | 0.00 | 32 | 1012.1 |
| 20260503201309 | 60 | 287 | 8.0 | 17.0 | 0.00 | 0.00 | 0.00 | 32 | 1012.2 |
| 20260503200806 | 60 | 286 | 6.0 | 15.0 | 0.00 | 0.00 | 0.00 | 34 | 1012.3 |
| 20260503200306 | 60 | 317 | 7.0 | 19.0 | 0.00 | 0.00 | 0.00 | 34 | 1012.4 |
| 20260503195805 | 59 | 285 | 10.0 | 19.0 | 0.00 | 0.00 | 0.00 | 33 | 1012.4 |
| 20260503195307 | 60 | 281 | 12.0 | 21.0 | 0.00 | 0.00 | 0.00 | 33 | 1012.5 |
| 20260503194805 | 59 | 282 | 11.0 | 21.0 | 0.00 | 0.00 | 0.00 | 32 | 1012.4 |
| 20260503194306 | 60 | 282 | 8.0 | 17.0 | 0.00 | 0.00 | 0.00 | 34 | 1012.5 |
| 20260503193758 | 59 | 275 | 7.0 | 20.0 | 0.00 | 0.00 | 0.00 | 33 | 1012.4 |
| 20260503193258 | 60 | 267 | 7.0 | 20.0 | 0.00 | 0.00 | 0.00 | 33 | 1012.5 |
| 20260503192758 | 59 | 254 | 8.0 | 19.0 | 0.00 | 0.00 | 0.00 | 34 | 1012.5 |
| 20260503192257 | 60 | 302 | 9.0 | 20.0 | 0.00 | 0.00 | 0.00 | 34 | 1012.5 |
| 20260503192030 | 59 | 286 | 8.0 | 21.0 | 0.00 | 0.00 | 0.00 | 32 | 1012.6 |
| 20260503191258 | 60 | 275 | 6.0 | 21.0 | 0.00 | 0.00 | 0.00 | 33 | 1012.5 |
| 20260503190758 | 59 | 271 | 7.0 | 17.0 | 0.00 | 0.00 | 0.00 | 33 | 1012.4 |
| 20260503190257 | 59 | 276 | 7.0 | 18.0 | 0.00 | 0.00 | 0.00 | 33 | 1012.6 |
| 20260503185755 | 59 | 269 | 7.0 | 18.0 | 0.00 | 0.00 | 0.00 | 33 | 1012.6 |
| 20260503185255 | 59 | 296 | 7.0 | 18.0 | 0.00 | 0.00 | 0.00 | 31 | 1012.6 |